QPF
0.00 0.00 0.00 0.00 0.00 0.00 0.00 0.00 0.00 0.00 0.00 0.01 0.02 0.02 0.01 0.01 0.01 0.00 0.01 0.01 0.01 0.01 0.02 0.01 0.01 0.00 0.00 0.01 0.00 0.00 0.00 0.00 0.00 0.00 0.00 0.00 0.00 0.00 0.00 0.00 0.00 0.00 0.00
0.00 0.00 0.00 0.00 0.00 0.00 0.00 0.00 0.00 0.00 0.00 0.00 0.01 0.01 0.01 0.01 0.01 0.01 0.00 0.00 0.01 0.01 0.01 0.01 0.01 0.01 0.01 0.01 0.01 0.01 0.00 0.00 0.00 0.00 0.00 0.00 0.00 0.00 0.00 0.00 0.00 0.00 0.00
0.00 0.00 0.00 0.00 0.00 0.00 0.00 0.00 0.00 0.00 0.00 0.00 0.00 0.00 0.01 0.01 0.00 0.01 0.01 0.00 0.00 0.00 0.01 0.01 0.01 0.01 0.02 0.02 0.02 0.02 0.01 0.01 0.01 0.00 0.00 0.00 0.00 0.00 0.00 0.00 0.00 0.00 0.00
0.00 0.00 0.00 0.00 0.00 0.00 0.00 0.00 0.00 0.00 0.00 0.00 0.00 0.00 0.00 0.00 0.00 0.00 0.01 0.01 0.01 0.00 0.01 0.01 0.01 0.02 0.02 0.03 0.04 0.05 0.04 0.03 0.02 0.02 0.01 0.01 0.00 0.00 0.00 0.00 0.00 0.00 0.00
0.00 0.00 0.00 0.00 0.00 0.00 0.00 0.00 0.00 0.00 0.00 0.00 0.00 0.00 0.00 0.00 0.00 0.00 0.00 0.01 0.01 0.02 0.02 0.02 0.02 0.02 0.02 0.03 0.05 0.06 0.06 0.06 0.05 0.04 0.06 0.05 0.03 0.01 0.01 0.01 0.01 0.01 0.00
0.00 0.00 0.00 0.00 0.00 0.00 0.00 0.00 0.00 0.00 0.00 0.00 0.00 0.00 0.00 0.00 0.00 0.00 0.00 0.00 0.01 0.02 0.03 0.03 0.03 0.03 0.03 0.04 0.06 0.07 0.08 0.11 0.10 0.07 0.06 0.09 0.08 0.05 0.04 0.03 0.02 0.02 0.01
0.00 0.00 0.00 0.00 0.00 0.00 0.00 0.00 0.00 0.00 0.00 0.00 0.00 0.00 0.00 0.00 0.00 0.00 0.00 0.00 0.01 0.02 0.03 0.04 0.04 0.04 0.05 0.06 0.07 0.08 0.09 0.12 0.13 0.11 0.09 0.10 0.10 0.09 0.08 0.08 0.05 0.04 0.03
0.00 0.00 0.00 0.00 0.00 0.00 0.00 0.00 0.00 0.00 0.00 0.00 0.00 0.00 0.00 0.00 0.00 0.00 0.00 0.00 0.00 0.01 0.02 0.04 0.05 0.05 0.06 0.07 0.08 0.09 0.11 0.13 0.14 0.14 0.13 0.11 0.10 0.10 0.11 0.12 0.14 0.13 0.11
0.00 0.00 0.00 0.00 0.00 0.00 0.00 0.00 0.00 0.00 0.00 0.00 0.00 0.00 0.00 0.00 0.00 0.00 0.00 0.00 0.00 0.01 0.02 0.03 0.04 0.05 0.06 0.07 0.08 0.08 0.09 0.11 0.12 0.13 0.13 0.11 0.10 0.11 0.11 0.13 0.15 0.18 0.17
0.00 0.00 0.00 0.00 0.00 0.00 0.00 0.00 0.00 0.00 0.00 0.00 0.00 0.00 0.00 0.00 0.00 0.00 0.00 0.00 0.00 0.00 0.01 0.02 0.03 0.04 0.05 0.06 0.07 0.06 0.07 0.08 0.09 0.09 0.10 0.10 0.10 0.11 0.12 0.13 0.15 0.17 0.18
0.00 0.00 0.00 0.00 0.00 0.00 0.00 0.00 0.00 0.00 0.00 0.00 0.00 0.00 0.00 0.00 0.00 0.00 0.00 0.00 0.00 0.00 0.00 0.01 0.02 0.02 0.03 0.04 0.05 0.04 0.04 0.05 0.05 0.05 0.06 0.06 0.06 0.06 0.07 0.09 0.11 0.14 0.16
0.00 0.00 0.00 0.00 0.00 0.00 0.00 0.00 0.00 0.00 0.00 0.00 0.00 0.00 0.00 0.00 0.00 0.00 0.00 0.00 0.00 0.00 0.00 0.01 0.01 0.01 0.02 0.02 0.03 0.03 0.03 0.03 0.03 0.03 0.04 0.04 0.04 0.05 0.05 0.06 0.07 0.09 0.11
0.00 0.00 0.00 0.00 0.00 0.00 0.00 0.00 0.00 0.00 0.00 0.00 0.00 0.00 0.00 0.00 0.00 0.00 0.00 0.00 0.00 0.00 0.01 0.01 0.01 0.01 0.02 0.02 0.02 0.02 0.02 0.02 0.02 0.02 0.03 0.03 0.04 0.04 0.05 0.06 0.07 0.09 0.10
0.00 0.00 0.00 0.00 0.00 0.00 0.00 0.00 0.00 0.00 0.00 0.00 0.00 0.00 0.00 0.00 0.00 0.00 0.00 0.00 0.00 0.01 0.01 0.01 0.02 0.02 0.02 0.02 0.02 0.02 0.02 0.02 0.02 0.03 0.03 0.04 0.04 0.05 0.07 0.08 0.09 0.09 0.10
0.00 0.00 0.00 0.00 0.00 0.00 0.00 0.00 0.00 0.00 0.00 0.00 0.00 0.00 0.00 0.00 0.00 0.00 0.00 0.01 0.01 0.01 0.01 0.01 0.01 0.02 0.02 0.02 0.02 0.02 0.03 0.04 0.04 0.05 0.06 0.07 0.09 0.09 0.08 0.08 0.08 0.08 0.08
0.00 0.00 0.00 0.00 0.00 0.00 0.00 0.00 0.00 0.00 0.00 0.00 0.00 0.00 0.00 0.00 0.00 0.00 0.00 0.00 0.00 0.00 0.01 0.02 0.02 0.03 0.04 0.06 0.05 0.04 0.05 0.06 0.06 0.07 0.08 0.09 0.10 0.09 0.09 0.08 0.08 0.07 0.06
0.00 0.00 0.00 0.00 0.00 0.00 0.00 0.00 0.00 0.00 0.00 0.00 0.00 0.00 0.00 0.00 0.00 0.00 0.00 0.00 0.00 0.00 0.01 0.02 0.03 0.04 0.06 0.07 0.07 0.07 0.07 0.08 0.09 0.09 0.08 0.09 0.09 0.08 0.07 0.06 0.05 0.04 0.03
0.00 0.00 0.00 0.00 0.00 0.00 0.00 0.00 0.00 0.00 0.00 0.00 0.00 0.00 0.00 0.00 0.00 0.00 0.00 0.00 0.01 0.01 0.01 0.02 0.04 0.05 0.06 0.08 0.08 0.10 0.10 0.11 0.10 0.09 0.08 0.07 0.06 0.04 0.03 0.02 0.02 0.01 0.01
0.00 0.00 0.00 0.00 0.00 0.00 0.00 0.00 0.00 0.00 0.00 0.00 0.00 0.00 0.00 0.00 0.00 0.00 0.00 0.00 0.01 0.01 0.02 0.03 0.04 0.05 0.05 0.06 0.06 0.05 0.05 0.06 0.06 0.06 0.05 0.04 0.03 0.02 0.02 0.01 0.00 0.00 0.00
0.00 0.00 0.00 0.00 0.00 0.00 0.00 0.00 0.00 0.00 0.00 0.00 0.00 0.00 0.00 0.00 0.00 0.00 0.00 0.00 0.01 0.01 0.01 0.02 0.03 0.03 0.04 0.04 0.03 0.03 0.03 0.03 0.03 0.02 0.01 0.01 0.01 0.00 0.00 0.00 0.00 0.00 0.00
0.00 0.00 0.00 0.00 0.00 0.00 0.00 0.00 0.00 0.00 0.00 0.00 0.00 0.00 0.00 0.00 0.00 0.00 0.00 0.00 0.00 0.01 0.01 0.02 0.02 0.02 0.02 0.02 0.02 0.02 0.01 0.01 0.01 0.01 0.00 0.00 0.00 0.00 0.00 0.00 0.00 0.00 0.00
0.00 0.00 0.00 0.00 0.00 0.00 0.00 0.00 0.00 0.00 0.00 0.00 0.00 0.00 0.00 0.00 0.00 0.00 0.00 0.00 0.00 0.00 0.00 0.00 0.01 0.01 0.01 0.01 0.00 0.00 0.00 0.00 0.00 0.00 0.00 0.00 0.00 0.00 0.00 0.00 0.00 0.00 0.00
0.00 0.00 0.00 0.00 0.00 0.00 0.00 0.00 0.00 0.00 0.00 0.00 0.00 0.00 0.00 0.00 0.00 0.00 0.00 0.00 0.00 0.00 0.00 0.00 0.00 0.00 0.00 0.00 0.00 0.00 0.00 0.00 0.00 0.00 0.00 0.00 0.00 0.00 0.00 0.00 0.00 0.00 0.00
0.00 0.00 0.00 0.00 0.00 0.00 0.00 0.00 0.00 0.00 0.00 0.00 0.00 0.00 0.00 0.00 0.00 0.00 0.00 0.00 0.00 0.00 0.00 0.00 0.00 0.00 0.00 0.00 0.00 0.00 0.00 0.00 0.00 0.00 0.00 0.00 0.00 0.00 0.00 0.00 0.00 0.00 0.00
0.00 0.00 0.00 0.00 0.00 0.00 0.00 0.00 0.00 0.00 0.00 0.00 0.00 0.00 0.00 0.00 0.00 0.00 0.00 0.00 0.00 0.00 0.00 0.00 0.00 0.00 0.00 0.00 0.00 0.00 0.00 0.00 0.00 0.00 0.00 0.00 0.00 0.00 0.00 0.00 0.00 0.00 0.00
0.00 0.00 0.00 0.00 0.00 0.00 0.00 0.00 0.00 0.00 0.00 0.00 0.00 0.00 0.00 0.00 0.00 0.00 0.00 0.00 0.00 0.00 0.00 0.00 0.00 0.00 0.00 0.00 0.00 0.00 0.00 0.00 0.00 0.00 0.00 0.00 0.00 0.00 0.00 0.00 0.00 0.00 0.00
MSLP
1012.63 1012.75 1012.89 1013.03 1013.13 1013.19 1013.22 1013.21 1013.22 1013.24 1013.31 1013.42 1013.57 1013.75 1013.93 1014.10 1014.25 1014.38 1014.48 1014.59 1014.71 1014.87 1015.09 1015.37 1015.70 1016.08 1016.49 1016.91 1017.33 1017.72 1018.09 1018.43 1018.76 1019.07 1019.35 1019.61 1019.85 1020.05 1020.21 1020.35 1020.46 1020.58 1020.72
1013.03 1013.18 1013.34 1013.46 1013.53 1013.54 1013.51 1013.46 1013.42 1013.40 1013.43 1013.50 1013.60 1013.72 1013.84 1013.94 1014.01 1014.05 1014.09 1014.13 1014.22 1014.36 1014.56 1014.84 1015.19 1015.57 1015.98 1016.39 1016.80 1017.18 1017.55 1017.90 1018.24 1018.57 1018.89 1019.18 1019.44 1019.66 1019.83 1019.96 1020.06 1020.15 1020.25
1013.51 1013.69 1013.85 1013.95 1013.99 1013.96 1013.89 1013.79 1013.71 1013.65 1013.64 1013.67 1013.73 1013.79 1013.83 1013.84 1013.82 1013.78 1013.73 1013.70 1013.73 1013.83 1014.00 1014.26 1014.58 1014.95 1015.33 1015.72 1016.10 1016.47 1016.83 1017.18 1017.53 1017.88 1018.23 1018.56 1018.86 1019.11 1019.31 1019.46 1019.57 1019.67 1019.78
1013.98 1014.18 1014.34 1014.43 1014.44 1014.37 1014.26 1014.14 1014.02 1013.94 1013.90 1013.90 1013.91 1013.91 1013.88 1013.81 1013.69 1013.55 1013.42 1013.31 1013.27 1013.30 1013.42 1013.63 1013.91 1014.23 1014.58 1014.93 1015.27 1015.61 1015.95 1016.29 1016.65 1017.03 1017.41 1017.78 1018.13 1018.44 1018.69 1018.89 1019.05 1019.19 1019.34
1014.35 1014.58 1014.75 1014.82 1014.81 1014.73 1014.59 1014.45 1014.32 1014.22 1014.16 1014.13 1014.10 1014.05 1013.95 1013.81 1013.61 1013.39 1013.17 1012.98 1012.85 1012.81 1012.87 1013.01 1013.23 1013.49 1013.77 1014.07 1014.37 1014.68 1014.99 1015.33 1015.69 1016.09 1016.50 1016.92 1017.33 1017.70 1018.03 1018.31 1018.55 1018.77 1018.99
1014.58 1014.84 1015.01 1015.10 1015.08 1014.99 1014.85 1014.70 1014.57 1014.47 1014.39 1014.34 1014.28 1014.19 1014.04 1013.83 1013.57 1013.28 1012.99 1012.73 1012.53 1012.42 1012.40 1012.47 1012.60 1012.79 1013.01 1013.25 1013.50 1013.77 1014.06 1014.38 1014.75 1015.16 1015.61 1016.07 1016.54 1016.99 1017.40 1017.77 1018.11 1018.43 1018.75
1014.66 1014.94 1015.14 1015.24 1015.25 1015.17 1015.05 1014.91 1014.79 1014.69 1014.61 1014.54 1014.46 1014.33 1014.15 1013.90 1013.60 1013.26 1012.92 1012.61 1012.35 1012.17 1012.08 1012.07 1012.13 1012.24 1012.39 1012.56 1012.76 1012.98 1013.25 1013.56 1013.93 1014.35 1014.82 1015.32 1015.84 1016.35 1016.85 1017.32 1017.76 1018.20 1018.62
1014.59 1014.91 1015.15 1015.29 1015.34 1015.30 1015.21 1015.10 1015.00 1014.91 1014.83 1014.75 1014.65 1014.50 1014.30 1014.03 1013.71 1013.35 1012.98 1012.64 1012.34 1012.11 1011.96 1011.88 1011.87 1011.91 1011.98 1012.09 1012.24 1012.42 1012.66 1012.95 1013.31 1013.74 1014.22 1014.75 1015.30 1015.86 1016.42 1016.97 1017.51 1018.05 1018.58
1014.43 1014.80 1015.09 1015.29 1015.39 1015.41 1015.38 1015.31 1015.24 1015.16 1015.09 1015.00 1014.88 1014.73 1014.51 1014.24 1013.91 1013.56 1013.19 1012.85 1012.54 1012.28 1012.09 1011.95 1011.88 1011.85 1011.86 1011.91 1012.00 1012.15 1012.35 1012.63 1012.97 1013.39 1013.87 1014.39 1014.96 1015.55 1016.15 1016.75 1017.36 1017.98 1018.59
1014.23 1014.65 1015.00 1015.27 1015.45 1015.55 1015.59 1015.58 1015.54 1015.49 1015.42 1015.32 1015.20 1015.03 1014.81 1014.55 1014.24 1013.91 1013.57 1013.24 1012.94 1012.68 1012.47 1012.30 1012.17 1012.08 1012.04 1012.04 1012.08 1012.19 1012.36 1012.61 1012.93 1013.33 1013.79 1014.30 1014.85 1015.43 1016.04 1016.67 1017.31 1017.96 1018.63
1014.05 1014.51 1014.93 1015.28 1015.54 1015.73 1015.85 1015.91 1015.91 1015.89 1015.83 1015.73 1015.60 1015.42 1015.21 1014.96 1014.69 1014.39 1014.10 1013.81 1013.54 1013.29 1013.08 1012.89 1012.73 1012.61 1012.52 1012.48 1012.49 1012.56 1012.70 1012.92 1013.21 1013.57 1014.00 1014.47 1014.99 1015.53 1016.11 1016.71 1017.34 1017.99 1018.66
1013.91 1014.42 1014.90 1015.33 1015.69 1015.96 1016.16 1016.29 1016.35 1016.35 1016.30 1016.21 1016.07 1015.90 1015.70 1015.47 1015.23 1014.99 1014.74 1014.50 1014.28 1014.07 1013.87 1013.68 1013.51 1013.37 1013.25 1013.18 1013.16 1013.20 1013.31 1013.50 1013.76 1014.09 1014.46 1014.89 1015.35 1015.84 1016.35 1016.90 1017.47 1018.07 1018.70
1013.85 1014.40 1014.94 1015.43 1015.87 1016.23 1016.51 1016.70 1016.81 1016.85 1016.82 1016.73 1016.60 1016.44 1016.25 1016.05 1015.85 1015.65 1015.46 1015.28 1015.11 1014.94 1014.77 1014.61 1014.44 1014.29 1014.17 1014.07 1014.03 1014.05 1014.15 1014.31 1014.53 1014.82 1015.15 1015.51 1015.90 1016.31 1016.75 1017.21 1017.70 1018.21 1018.75
1013.88 1014.46 1015.04 1015.59 1016.09 1016.51 1016.86 1017.11 1017.27 1017.34 1017.33 1017.26 1017.14 1016.99 1016.82 1016.65 1016.49 1016.34 1016.21 1016.09 1015.97 1015.85 1015.73 1015.59 1015.45 1015.31 1015.18 1015.09 1015.04 1015.05 1015.12 1015.26 1015.45 1015.70 1015.98 1016.28 1016.60 1016.93 1017.27 1017.63 1018.01 1018.41 1018.84
1013.99 1014.59 1015.20 1015.78 1016.32 1016.80 1017.19 1017.48 1017.68 1017.79 1017.81 1017.76 1017.66 1017.53 1017.39 1017.25 1017.12 1017.02 1016.94 1016.88 1016.81 1016.75 1016.67 1016.57 1016.45 1016.33 1016.22 1016.13 1016.09 1016.09 1016.15 1016.27 1016.44 1016.65 1016.88 1017.13 1017.38 1017.63 1017.87 1018.13 1018.39 1018.67 1018.98
1014.20 1014.81 1015.42 1016.02 1016.57 1017.06 1017.48 1017.81 1018.03 1018.17 1018.22 1018.20 1018.13 1018.02 1017.91 1017.81 1017.72 1017.66 1017.63 1017.61 1017.60 1017.58 1017.54 1017.48 1017.40 1017.31 1017.22 1017.15 1017.11 1017.11 1017.16 1017.26 1017.41 1017.58 1017.78 1017.97 1018.16 1018.34 1018.50 1018.65 1018.81 1018.98 1019.16
1014.48 1015.09 1015.70 1016.28 1016.83 1017.31 1017.73 1018.07 1018.32 1018.48 1018.55 1018.57 1018.53 1018.46 1018.38 1018.31 1018.26 1018.24 1018.24 1018.27 1018.29 1018.31 1018.32 1018.30 1018.25 1018.19 1018.12 1018.07 1018.03 1018.03 1018.07 1018.16 1018.28 1018.42 1018.58 1018.73 1018.87 1018.99 1019.08 1019.16 1019.22 1019.29 1019.37
1014.81 1015.42 1016.01 1016.56 1017.08 1017.54 1017.94 1018.27 1018.53 1018.70 1018.81 1018.85 1018.85 1018.82 1018.78 1018.75 1018.73 1018.75 1018.78 1018.83 1018.89 1018.95 1018.98 1018.99 1018.98 1018.94 1018.89 1018.85 1018.82 1018.81 1018.84 1018.90 1018.99 1019.11 1019.23 1019.35 1019.45 1019.52 1019.57 1019.59 1019.59 1019.58 1019.58
1015.17 1015.77 1016.32 1016.84 1017.31 1017.73 1018.11 1018.42 1018.67 1018.86 1018.99 1019.07 1019.10 1019.12 1019.12 1019.12 1019.14 1019.18 1019.25 1019.32 1019.40 1019.48 1019.54 1019.57 1019.58 1019.56 1019.52 1019.48 1019.44 1019.43 1019.43 1019.47 1019.53 1019.62 1019.71 1019.79 1019.86 1019.91 1019.92 1019.91 1019.87 1019.82 1019.77
1015.50 1016.07 1016.60 1017.07 1017.49 1017.87 1018.21 1018.51 1018.75 1018.95 1019.10 1019.21 1019.29 1019.35 1019.39 1019.43 1019.49 1019.55 1019.63 1019.73 1019.82 1019.91 1019.98 1020.03 1020.05 1020.04 1020.01 1019.96 1019.92 1019.88 1019.87 1019.87 1019.90 1019.95 1020.01 1020.07 1020.11 1020.14 1020.14 1020.11 1020.05 1019.98 1019.90
1015.74 1016.29 1016.77 1017.21 1017.59 1017.94 1018.24 1018.52 1018.76 1018.97 1019.15 1019.30 1019.42 1019.52 1019.60 1019.68 1019.77 1019.86 1019.95 1020.06 1020.16 1020.26 1020.33 1020.39 1020.41 1020.40 1020.37 1020.32 1020.27 1020.21 1020.16 1020.14 1020.13 1020.14 1020.17 1020.20 1020.23 1020.25 1020.24 1020.21 1020.15 1020.07 1019.99
1015.82 1016.34 1016.80 1017.20 1017.56 1017.89 1018.18 1018.45 1018.70 1018.93 1019.14 1019.32 1019.48 1019.63 1019.75 1019.87 1019.98 1020.09 1020.21 1020.32 1020.43 1020.52 1020.60 1020.65 1020.68 1020.67 1020.63 1020.58 1020.50 1020.43 1020.36 1020.30 1020.26 1020.25 1020.25 1020.26 1020.27 1020.28 1020.27 1020.24 1020.19 1020.12 1020.03
1015.71 1016.20 1016.64 1017.04 1017.39 1017.71 1018.01 1018.30 1018.56 1018.82 1019.06 1019.28 1019.48 1019.67 1019.83 1019.99 1020.13 1020.26 1020.39 1020.51 1020.62 1020.71 1020.79 1020.84 1020.86 1020.85 1020.82 1020.75 1020.67 1020.58 1020.49 1020.41 1020.35 1020.31 1020.29 1020.28 1020.28 1020.28 1020.28 1020.25 1020.20 1020.13 1020.04
1015.39 1015.87 1016.30 1016.70 1017.07 1017.41 1017.74 1018.05 1018.35 1018.64 1018.92 1019.18 1019.42 1019.65 1019.85 1020.04 1020.21 1020.36 1020.50 1020.63 1020.75 1020.84 1020.92 1020.96 1020.99 1020.97 1020.93 1020.87 1020.78 1020.69 1020.59 1020.50 1020.43 1020.37 1020.33 1020.31 1020.30 1020.30 1020.28 1020.26 1020.21 1020.14 1020.05
1014.90 1015.36 1015.81 1016.23 1016.63 1017.01 1017.38 1017.74 1018.08 1018.41 1018.72 1019.02 1019.31 1019.57 1019.81 1020.02 1020.22 1020.40 1020.56 1020.69 1020.81 1020.91 1020.99 1021.03 1021.05 1021.04 1021.00 1020.94 1020.86 1020.77 1020.67 1020.58 1020.50 1020.44 1020.40 1020.37 1020.35 1020.33 1020.31 1020.28 1020.22 1020.14 1020.04
1014.31 1014.77 1015.23 1015.69 1016.14 1016.57 1016.98 1017.39 1017.77 1018.14 1018.49 1018.83 1019.15 1019.44 1019.71 1019.96 1020.18 1020.38 1020.56 1020.71 1020.83 1020.94 1021.01 1021.05 1021.07 1021.06 1021.02 1020.97 1020.90 1020.81 1020.73 1020.65 1020.58 1020.52 1020.47 1020.44 1020.41 1020.38 1020.35 1020.30 1020.23 1020.13 1020.02
Thickness
5682 5685 5688 5691 5692 5693 5694 5695 5696 5698 5698 5696 5694 5692 5691 5691 5689 5688 5685 5682 5680 5678 5676 5674 5671 5668 5664 5660 5656 5651 5646 5642 5638 5631 5627 5627 5628 5627 5627 5625 5623 5621 5618
5670 5674 5678 5679 5680 5681 5682 5684 5686 5688 5690 5690 5690 5689 5688 5688 5687 5685 5683 5680 5676 5672 5669 5667 5665 5662 5658 5654 5650 5646 5640 5635 5632 5624 5615 5611 5612 5617 5620 5618 5616 5615 5612
5659 5662 5665 5667 5668 5668 5669 5672 5675 5677 5680 5681 5682 5682 5682 5681 5680 5679 5678 5676 5672 5668 5664 5660 5657 5654 5651 5648 5644 5640 5634 5628 5625 5623 5616 5609 5610 5608 5609 5611 5610 5608 5606
5650 5651 5653 5654 5656 5657 5659 5661 5664 5668 5670 5672 5671 5670 5669 5668 5670 5671 5672 5671 5669 5665 5661 5656 5651 5647 5643 5640 5637 5633 5628 5622 5616 5613 5614 5614 5611 5603 5598 5600 5601 5600 5599
5639 5641 5643 5645 5647 5648 5649 5652 5655 5658 5661 5662 5663 5661 5661 5661 5662 5663 5663 5664 5663 5661 5657 5652 5646 5641 5636 5632 5628 5624 5620 5616 5611 5605 5603 5599 5597 5598 5592 5587 5588 5589 5590
5631 5633 5635 5637 5637 5639 5640 5643 5646 5648 5651 5652 5653 5653 5652 5652 5651 5651 5652 5653 5653 5652 5651 5646 5642 5636 5631 5625 5620 5615 5611 5608 5603 5598 5594 5591 5587 5587 5585 5582 5576 5576 5577
5622 5624 5626 5626 5628 5630 5631 5633 5636 5637 5640 5641 5642 5643 5643 5643 5642 5642 5642 5642 5642 5642 5641 5639 5635 5630 5625 5619 5613 5607 5602 5597 5593 5590 5586 5584 5582 5580 5577 5574 5567 5562 5560
5616 5617 5618 5618 5618 5620 5621 5622 5624 5626 5628 5630 5631 5632 5633 5633 5634 5634 5633 5633 5632 5631 5631 5629 5626 5621 5616 5609 5602 5596 5591 5585 5581 5578 5574 5571 5571 5568 5566 5563 5555 5546 5541
5610 5610 5609 5609 5609 5609 5610 5612 5614 5615 5617 5618 5620 5621 5622 5622 5623 5623 5623 5623 5622 5621 5619 5616 5613 5609 5604 5597 5589 5582 5576 5570 5566 5563 5560 5556 5554 5553 5552 5550 5548 5542 5533
5602 5602 5600 5599 5599 5599 5600 5602 5603 5603 5605 5606 5607 5609 5610 5611 5611 5612 5611 5610 5610 5608 5605 5602 5598 5593 5587 5580 5572 5565 5559 5552 5548 5544 5542 5538 5535 5534 5534 5534 5533 5532 5530
5592 5591 5590 5589 5590 5589 5589 5590 5591 5591 5592 5593 5595 5596 5597 5598 5598 5598 5597 5596 5594 5592 5589 5585 5580 5574 5568 5561 5553 5546 5539 5533 5528 5524 5521 5518 5516 5515 5515 5515 5515 5515 5515
5583 5582 5581 5580 5579 5578 5578 5578 5579 5579 5579 5581 5583 5584 5584 5584 5583 5582 5582 5581 5578 5576 5572 5568 5563 5556 5549 5542 5534 5526 5519 5513 5508 5504 5501 5497 5497 5495 5496 5497 5498 5498 5499
5576 5574 5572 5571 5569 5569 5568 5567 5567 5567 5568 5569 5570 5569 5569 5568 5568 5567 5566 5565 5562 5559 5555 5550 5544 5537 5530 5523 5516 5508 5501 5495 5489 5486 5483 5481 5479 5479 5479 5480 5481 5482 5483
5568 5566 5563 5562 5561 5559 5558 5557 5557 5557 5557 5557 5557 5556 5555 5554 5553 5553 5552 5550 5547 5543 5538 5532 5526 5520 5513 5506 5499 5492 5485 5478 5473 5470 5468 5466 5465 5465 5465 5466 5466 5467 5467
5562 5559 5556 5553 5552 5550 5549 5548 5547 5546 5546 5546 5544 5543 5542 5541 5540 5539 5538 5536 5533 5528 5523 5517 5512 5506 5499 5492 5485 5479 5472 5465 5460 5457 5454 5453 5452 5452 5453 5454 5454 5455 5453
5557 5553 5550 5547 5544 5541 5539 5538 5537 5536 5535 5534 5533 5532 5530 5529 5528 5527 5525 5522 5519 5514 5509 5504 5498 5493 5487 5480 5474 5468 5461 5455 5450 5447 5444 5442 5442 5442 5443 5443 5443 5443 5442
5551 5547 5542 5539 5536 5533 5531 5529 5528 5527 5525 5523 5522 5521 5520 5518 5517 5515 5513 5510 5506 5501 5497 5491 5486 5481 5475 5470 5464 5458 5452 5447 5441 5438 5436 5434 5433 5433 5432 5433 5433 5432 5431
5545 5539 5535 5532 5529 5526 5524 5522 5520 5518 5516 5514 5513 5511 5510 5508 5506 5504 5501 5498 5494 5489 5484 5479 5475 5470 5465 5461 5456 5450 5444 5439 5435 5432 5429 5427 5426 5425 5425 5425 5423 5422 5422
5537 5532 5529 5525 5522 5519 5517 5515 5512 5510 5508 5505 5504 5502 5501 5499 5496 5493 5490 5487 5483 5478 5473 5468 5463 5459 5455 5452 5447 5443 5438 5433 5429 5427 5424 5422 5420 5420 5419 5417 5415 5414 5413
5529 5526 5522 5519 5516 5514 5512 5509 5505 5502 5500 5498 5496 5494 5492 5490 5487 5484 5481 5477 5473 5468 5464 5459 5454 5450 5447 5444 5441 5438 5433 5428 5425 5422 5419 5418 5416 5414 5413 5410 5408 5405 5403
5523 5520 5517 5513 5511 5509 5506 5502 5498 5495 5493 5491 5489 5487 5485 5482 5479 5476 5472 5469 5465 5460 5456 5451 5448 5444 5441 5438 5436 5433 5428 5424 5420 5417 5414 5412 5410 5408 5406 5404 5400 5397 5395
5518 5515 5511 5508 5506 5504 5501 5496 5492 5490 5488 5486 5483 5481 5478 5476 5472 5469 5465 5462 5458 5454 5449 5445 5441 5438 5435 5433 5430 5427 5423 5420 5415 5412 5409 5406 5404 5402 5399 5395 5392 5389 5384
5513 5511 5507 5503 5501 5499 5496 5491 5488 5485 5483 5481 5478 5475 5473 5469 5467 5463 5459 5456 5453 5449 5445 5440 5436 5432 5430 5427 5424 5421 5417 5414 5410 5406 5404 5401 5398 5394 5389 5386 5383 5378 5370
5510 5507 5504 5500 5497 5495 5493 5490 5486 5483 5480 5476 5473 5470 5467 5463 5460 5457 5454 5450 5447 5443 5439 5435 5430 5427 5424 5420 5417 5413 5410 5407 5403 5399 5397 5394 5390 5386 5382 5377 5372 5366 5359
5508 5504 5501 5499 5496 5493 5490 5487 5483 5480 5476 5472 5469 5465 5462 5458 5454 5450 5446 5443 5438 5436 5432 5427 5424 5420 5416 5414 5412 5407 5404 5400 5396 5393 5388 5384 5380 5376 5371 5366 5360 5354 5348
5505 5501 5499 5497 5493 5490 5486 5482 5479 5476 5472 5467 5463 5459 5456 5452 5448 5443 5439 5437 5434 5431 5427 5423 5419 5415 5412 5409 5405 5401 5398 5394 5390 5385 5378 5374 5370 5365 5360 5355 5348 5342 5335